Time,TemperatureF,DewpointF,PressureIn,WindDirection,WindDirectionDegrees,WindSpeedMPH,WindSpeedGustMPH,Humidity,HourlyPrecipIn,Conditions,Clouds,dailyrainin,SoftwareType,DateUTC
2013-03-07 00:03:00,43.0,-99.9,-100.00,South,174,9.0,-999.0,-999,-99.99,,,-99.99,,2013-03-07 08:03:00,
2013-03-07 00:12:00,43.0,-99.9,-100.00,South,174,9.0,-999.0,-999,-99.99,,,-99.99,,2013-03-07 08:12:00,
2013-03-07 00:20:00,43.0,-99.9,-100.00,South,170,5.0,-999.0,-999,-99.99,,,-99.99,,2013-03-07 08:20:00,
2013-03-07 01:04:00,43.0,-99.9,-100.00,South,170,5.0,-999.0,-999,-99.99,,,-99.99,,2013-03-07 09:04:00,
2013-03-07 01:14:00,43.0,-99.9,-100.00,South,170,5.0,-999.0,-999,-99.99,,,-99.99,,2013-03-07 09:14:00,
2013-03-07 01:20:00,43.0,-99.9,-100.00,SE,132,6.0,-999.0,-999,-99.99,,,-99.99,,2013-03-07 09:20:00,
2013-03-07 02:04:00,43.0,-99.9,-100.00,SE,132,6.0,-999.0,-999,-99.99,,,-99.99,,2013-03-07 10:04:00,
2013-03-07 02:14:00,43.0,-99.9,-100.00,SE,132,6.0,-999.0,-999,-99.99,,,-99.99,,2013-03-07 10:14:00,
2013-03-07 02:20:00,44.0,-99.9,-100.00,SSE,149,3.0,-999.0,-999,-99.99,,,-99.99,,2013-03-07 10:20:00,
2013-03-07 03:04:00,44.0,-99.9,-100.00,SSE,149,3.0,-999.0,-999,-99.99,,,-99.99,,2013-03-07 11:04:00,
2013-03-07 03:12:00,44.0,-99.9,-100.00,SSE,149,3.0,-999.0,-999,-99.99,,,-99.99,,2013-03-07 11:12:00,
2013-03-07 03:20:00,44.0,-99.9,-100.00,South,186,6.0,-999.0,-999,-99.99,,,-99.99,,2013-03-07 11:20:00,
2013-03-07 04:04:00,44.0,-99.9,-100.00,South,186,6.0,-999.0,-999,-99.99,,,-99.99,,2013-03-07 12:04:00,
2013-03-07 04:13:00,44.0,-99.9,-100.00,South,186,6.0,-999.0,-999,-99.99,,,-99.99,,2013-03-07 12:13:00,
2013-03-07 04:20:00,44.0,-99.9,-100.00,SE,142,6.0,-999.0,-999,-99.99,,,-99.99,,2013-03-07 12:20:00,
2013-03-07 05:03:00,44.0,-99.9,-100.00,SE,142,6.0,-999.0,-999,-99.99,,,-99.99,,2013-03-07 13:03:00,
2013-03-07 05:13:00,44.0,-99.9,-100.00,SE,142,6.0,-999.0,-999,-99.99,,,-99.99,,2013-03-07 13:13:00,
2013-03-07 05:20:00,43.0,-99.9,-100.00,SE,125,3.0,-999.0,-999,-99.99,,,-99.99,,2013-03-07 13:20:00,
2013-03-07 06:02:00,43.0,-99.9,-100.00,SE,125,3.0,-999.0,-999,-99.99,,,-99.99,,2013-03-07 14:02:00,
2013-03-07 06:13:00,43.0,-99.9,-100.00,SE,125,3.0,-999.0,-999,-99.99,,,-99.99,,2013-03-07 14:13:00,
2013-03-07 06:20:00,43.0,-99.9,-100.00,SE,129,5.0,-999.0,-999,-99.99,,,-99.99,,2013-03-07 14:20:00,
2013-03-07 07:04:00,43.0,-99.9,-100.00,SE,129,5.0,-999.0,-999,-99.99,,,-99.99,,2013-03-07 15:04:00,
2013-03-07 07:13:00,43.0,-99.9,-100.00,SE,129,5.0,-999.0,-999,-99.99,,,-99.99,,2013-03-07 15:13:00,
2013-03-07 07:20:00,43.0,-99.9,-100.00,SE,134,5.0,-999.0,-999,-99.99,,,-99.99,,2013-03-07 15:20:00,
2013-03-07 08:03:00,43.0,-99.9,-100.00,SE,134,5.0,-999.0,-999,-99.99,,,-99.99,,2013-03-07 16:03:00,
2013-03-07 08:13:00,43.0,-99.9,-100.00,SE,134,5.0,-999.0,-999,-99.99,,,-99.99,,2013-03-07 16:13:00,
2013-03-07 08:20:00,44.0,-99.9,-100.00,SSE,163,10.0,-999.0,-999,-99.99,,,-99.99,,2013-03-07 16:20:00,
2013-03-07 09:03:00,44.0,-99.9,-100.00,SSE,163,10.0,-999.0,-999,-99.99,,,-99.99,,2013-03-07 17:03:00,
2013-03-07 09:13:00,44.0,-99.9,-100.00,SSE,163,10.0,-999.0,-999,-99.99,,,-99.99,,2013-03-07 17:13:00,
2013-03-07 09:20:00,45.0,-99.9,-100.00,SSE,166,8.0,-999.0,-999,-99.99,,,-99.99,,2013-03-07 17:20:00,
2013-03-07 10:04:00,45.0,-99.9,-100.00,SSE,166,8.0,-999.0,-999,-99.99,,,-99.99,,2013-03-07 18:04:00,
2013-03-07 10:13:00,45.0,-99.9,-100.00,SSE,166,8.0,-999.0,-999,-99.99,,,-99.99,,2013-03-07 18:13:00,
2013-03-07 10:20:00,46.0,-99.9,-100.00,SSE,164,12.0,-999.0,-999,-99.99,,,-99.99,,2013-03-07 18:20:00,
2013-03-07 11:04:00,46.0,-99.9,-100.00,SSE,164,12.0,-999.0,-999,-99.99,,,-99.99,,2013-03-07 19:04:00,
2013-03-07 11:13:00,46.0,-99.9,-100.00,SSE,164,12.0,-999.0,-999,-99.99,,,-99.99,,2013-03-07 19:13:00,
2013-03-07 11:20:00,47.0,-99.9,-100.00,SSE,158,14.0,-999.0,-999,-99.99,,,-99.99,,2013-03-07 19:20:00,
2013-03-07 12:02:00,47.0,-99.9,-100.00,SSE,158,14.0,-999.0,-999,-99.99,,,-99.99,,2013-03-07 20:02:00,
2013-03-07 12:14:00,47.0,-99.9,-100.00,SSE,158,14.0,-999.0,-999,-99.99,,,-99.99,,2013-03-07 20:14:00,
2013-03-07 12:20:00,49.0,-99.9,-100.00,South,182,14.0,-999.0,-999,-99.99,,,-99.99,,2013-03-07 20:20:00,
2013-03-07 13:03:00,49.0,-99.9,-100.00,South,182,14.0,-999.0,-999,-99.99,,,-99.99,,2013-03-07 21:03:00,
2013-03-07 13:13:00,49.0,-99.9,-100.00,South,182,14.0,-999.0,-999,-99.99,,,-99.99,,2013-03-07 21:13:00,
2013-03-07 13:20:00,50.0,-99.9,-100.00,South,170,15.0,-999.0,-999,-99.99,,,-99.99,,2013-03-07 21:20:00,
2013-03-07 14:02:00,50.0,-99.9,-100.00,South,170,15.0,-999.0,-999,-99.99,,,-99.99,,2013-03-07 22:02:00,
2013-03-07 14:12:00,50.0,-99.9,-100.00,South,170,15.0,-999.0,-999,-99.99,,,-99.99,,2013-03-07 22:12:00,
2013-03-07 14:20:00,50.0,-99.9,-100.00,SE,129,2.0,-999.0,-999,-99.99,,,-99.99,,2013-03-07 22:20:00,
2013-03-07 15:03:00,50.0,-99.9,-100.00,SE,129,2.0,-999.0,-999,-99.99,,,-99.99,,2013-03-07 23:03:00,
2013-03-07 15:13:00,50.0,-99.9,-100.00,SE,129,2.0,-999.0,-999,-99.99,,,-99.99,,2013-03-07 23:13:00,
2013-03-07 15:20:00,51.0,-99.9,-100.00,SW,228,5.0,-999.0,-999,-99.99,,,-99.99,,2013-03-07 23:20:00,
2013-03-07 16:05:00,51.0,-99.9,-100.00,SW,228,5.0,-999.0,-999,-99.99,,,-99.99,,2013-03-08 00:05:00,
2013-03-07 16:13:00,51.0,-99.9,-100.00,SW,228,5.0,-999.0,-999,-99.99,,,-99.99,,2013-03-08 00:13:00,
2013-03-07 16:20:00,52.0,-99.9,-100.00,East,97,2.0,-999.0,-999,-99.99,,,-99.99,,2013-03-08 00:20:00,
2013-03-07 17:02:00,52.0,-99.9,-100.00,East,97,2.0,-999.0,-999,-99.99,,,-99.99,,2013-03-08 01:02:00,
2013-03-07 17:12:00,52.0,-99.9,-100.00,East,97,2.0,-999.0,-999,-99.99,,,-99.99,,2013-03-08 01:12:00,
2013-03-07 17:20:00,50.0,-99.9,-100.00,ENE,78,3.0,-999.0,-999,-99.99,,,-99.99,,2013-03-08 01:20:00,
2013-03-07 18:02:00,50.0,-99.9,-100.00,ENE,78,3.0,-999.0,-999,-99.99,,,-99.99,,2013-03-08 02:02:00,
2013-03-07 18:12:00,50.0,-99.9,-100.00,ENE,78,3.0,-999.0,-999,-99.99,,,-99.99,,2013-03-08 02:12:00,
2013-03-07 18:20:00,48.0,-99.9,-100.00,WNW,286,5.0,-999.0,-999,-99.99,,,-99.99,,2013-03-08 02:20:00,
2013-03-07 19:02:00,48.0,-99.9,-100.00,WNW,286,5.0,-999.0,-999,-99.99,,,-99.99,,2013-03-08 03:02:00,
2013-03-07 19:12:00,48.0,-99.9,-100.00,WNW,286,5.0,-999.0,-999,-99.99,,,-99.99,,2013-03-08 03:12:00,
2013-03-07 19:20:00,46.0,-99.9,-100.00,SW,233,3.0,-999.0,-999,-99.99,,,-99.99,,2013-03-08 03:20:00,
2013-03-07 20:02:00,46.0,-99.9,-100.00,SW,233,3.0,-999.0,-999,-99.99,,,-99.99,,2013-03-08 04:02:00,
2013-03-07 20:12:00,46.0,-99.9,-100.00,SW,233,3.0,-999.0,-999,-99.99,,,-99.99,,2013-03-08 04:12:00,
2013-03-07 20:20:00,44.0,-99.9,-100.00,WSW,258,5.0,-999.0,-999,-99.99,,,-99.99,,2013-03-08 04:20:00,
2013-03-07 21:02:00,44.0,-99.9,-100.00,WSW,258,5.0,-999.0,-999,-99.99,,,-99.99,,2013-03-08 05:02:00,
2013-03-07 21:12:00,44.0,-99.9,-100.00,WSW,258,5.0,-999.0,-999,-99.99,,,-99.99,,2013-03-08 05:12:00,
2013-03-07 21:20:00,42.0,-99.9,-100.00,West,259,5.0,-999.0,-999,-99.99,,,-99.99,,2013-03-08 05:20:00,
2013-03-07 22:02:00,42.0,-99.9,-100.00,West,259,5.0,-999.0,-999,-99.99,,,-99.99,,2013-03-08 06:02:00,
2013-03-07 22:11:00,42.0,-99.9,-100.00,West,259,5.0,-999.0,-999,-99.99,,,-99.99,,2013-03-08 06:11:00,
2013-03-07 22:20:00,41.0,-99.9,-100.00,West,263,3.0,-999.0,-999,-99.99,,,-99.99,,2013-03-08 06:20:00,
2013-03-07 23:01:00,41.0,-99.9,-100.00,West,263,3.0,-999.0,-999,-99.99,,,-99.99,,2013-03-08 07:01:00,
2013-03-07 23:11:00,41.0,-99.9,-100.00,West,263,3.0,-999.0,-999,-99.99,,,-99.99,,2013-03-08 07:11:00,
2013-03-07 23:20:00,41.0,-99.9,-100.00,WSW,256,5.0,-999.0,-999,-99.99,,,-99.99,,2013-03-08 07:20:00,